N551ES KIPL-LO5

Flight info

Callsign N551ES
Flight time N/A
Altitude 20000
Route IPL V137 PMD V197 AMONT
Aircraft EPIC/L-VGDW/C

Departure

Time 2026-05-05 19:59
Airport Imperial County Airport (KIPL)

Arrival

Time N/A
Airport LO5
Time Latitude Longitude Altitude Speed Heading
2026-05-05 19:52 32.83631 -115.57339 -45 ft 0 kts 247°
2026-05-05 19:55 32.83612 -115.57362 -45 ft 15 kts 215°
2026-05-05 19:55 32.83473 -115.57368 -45 ft 22 kts 159°
2026-05-05 19:55 32.83421 -115.57352 -45 ft 0 kts 229°
2026-05-05 19:56 32.83411 -115.57378 -45 ft 19 kts 248°
2026-05-05 19:56 32.83357 -115.57512 -45 ft 15 kts 240°
2026-05-05 19:56 32.83273 -115.57561 -45 ft 18 kts 179°
2026-05-05 19:56 32.83241 -115.57561 -45 ft 0 kts 183°
2026-05-05 19:58 32.83231 -115.57561 -45 ft 7 kts 191°
2026-05-05 19:59 32.83210 -115.57683 -45 ft 37 kts 268°
2026-05-05 19:59 32.83240 -115.58331 140 ft 100 kts 269°
2026-05-05 19:59 32.83645 -115.58970 655 ft 134 kts 346°
2026-05-05 19:59 32.84645 -115.58740 1436 ft 156 kts 11°
2026-05-05 20:00 32.85630 -115.58366 2516 ft 154 kts 11°
2026-05-05 20:00 32.86599 -115.57997 3585 ft 153 kts 11°
2026-05-05 20:00 32.87589 -115.57616 4638 ft 154 kts 10°
2026-05-05 20:00 32.88582 -115.57251 5674 ft 155 kts
2026-05-05 20:01 32.89567 -115.57364 6695 ft 149 kts 335°
2026-05-05 20:01 32.90494 -115.57837 7744 ft 150 kts 327°
2026-05-05 20:01 32.91383 -115.58424 8789 ft 152 kts 324°
2026-05-05 20:01 32.92254 -115.59054 9876 ft 152 kts 323°
2026-05-05 20:02 32.93115 -115.59701 10903 ft 155 kts 322°
2026-05-05 20:02 32.94006 -115.60377 11935 ft 158 kts 321°
2026-05-05 20:02 32.94917 -115.61078 12965 ft 162 kts 321°
2026-05-05 20:02 32.95844 -115.61789 14020 ft 164 kts 321°
2026-05-05 20:03 32.96780 -115.62509 15056 ft 168 kts 321°
2026-05-05 20:03 32.97741 -115.63249 16095 ft 172 kts 322°
2026-05-05 20:03 32.98771 -115.64041 17034 ft 183 kts 322°
2026-05-05 20:03 32.99832 -115.64854 18081 ft 188 kts 321°
2026-05-05 20:04 33.00884 -115.65664 18963 ft 182 kts 321°
2026-05-05 20:04 33.01958 -115.66493 19484 ft 189 kts 322°
2026-05-05 20:04 33.03083 -115.67363 19899 ft 200 kts 323°
2026-05-05 20:04 33.04326 -115.68318 19945 ft 225 kts 323°
2026-05-05 20:05 33.05697 -115.69375 19950 ft 244 kts 323°
2026-05-05 20:05 33.07187 -115.70521 19939 ft 259 kts 324°
2026-05-05 20:05 33.08728 -115.71709 19931 ft 270 kts 324°
2026-05-05 20:05 33.10336 -115.72947 19924 ft 280 kts 324°
2026-05-05 20:06 33.12003 -115.74233 19916 ft 291 kts 324°
2026-05-05 20:06 33.13719 -115.75559 19910 ft 298 kts 324°
2026-05-05 20:06 33.15472 -115.76913 19905 ft 300 kts 324°
2026-05-05 20:06 33.17223 -115.78267 19903 ft 300 kts 324°
2026-05-05 20:07 33.18968 -115.79614 19904 ft 299 kts 324°
2026-05-05 20:07 33.20692 -115.80949 19897 ft 295 kts 324°
2026-05-05 20:07 33.22403 -115.82271 19899 ft 291 kts 324°
2026-05-05 20:07 33.24096 -115.83582 19898 ft 288 kts 324°
2026-05-05 20:08 33.25773 -115.84882 19896 ft 286 kts 324°
2026-05-05 20:08 33.27455 -115.86180 19903 ft 290 kts 324°
2026-05-05 20:08 33.29189 -115.87527 19910 ft 304 kts 324°
2026-05-05 20:08 33.30970 -115.88908 19908 ft 314 kts 325°
2026-05-05 20:09 33.32839 -115.90359 19907 ft 320 kts 325°
2026-05-05 20:09 33.34696 -115.91801 19897 ft 317 kts 324°
2026-05-05 20:09 33.36452 -115.93304 19893 ft 305 kts 323°
2026-05-05 20:09 33.38147 -115.94759 19888 ft 295 kts 323°
2026-05-05 20:10 33.39781 -115.96162 19891 ft 287 kts 323°
2026-05-05 20:10 33.41387 -115.97542 19902 ft 278 kts 323°
2026-05-05 20:10 33.42945 -115.98882 19896 ft 269 kts 323°
2026-05-05 20:10 33.44453 -116.00176 19892 ft 265 kts 323°
2026-05-05 20:11 33.45979 -116.01489 19906 ft 276 kts 322°
2026-05-05 20:11 33.47546 -116.02837 19909 ft 284 kts 322°
2026-05-05 20:11 33.49174 -116.04237 19924 ft 290 kts 322°
2026-05-05 20:11 33.50836 -116.05671 19935 ft 295 kts 323°
2026-05-05 20:12 33.52504 -116.07107 19942 ft 298 kts 323°
2026-05-05 20:12 33.54184 -116.08556 19943 ft 300 kts 323°
2026-05-05 20:12 33.55879 -116.10019 19940 ft 301 kts 323°
2026-05-05 20:12 33.57589 -116.11493 19943 ft 300 kts 323°
2026-05-05 20:13 33.59282 -116.12955 19945 ft 299 kts 323°
2026-05-05 20:13 33.60966 -116.14409 19946 ft 299 kts 323°
2026-05-05 20:13 33.62640 -116.15856 19950 ft 299 kts 322°
2026-05-05 20:13 33.64186 -116.17525 19953 ft 298 kts 316°
2026-05-05 20:14 33.65705 -116.19213 19947 ft 297 kts 316°
2026-05-05 20:14 33.67199 -116.20873 19945 ft 294 kts 316°
2026-05-05 20:14 33.68705 -116.22548 19944 ft 291 kts 316°
2026-05-05 20:14 33.70176 -116.24183 19937 ft 289 kts 316°
2026-05-05 20:15 33.71656 -116.25831 19938 ft 287 kts 316°
2026-05-05 20:15 33.73106 -116.27443 19939 ft 285 kts 316°
2026-05-05 20:15 33.74562 -116.29068 19938 ft 284 kts 316°
2026-05-05 20:15 33.75993 -116.30663 19944 ft 283 kts 316°
2026-05-05 20:16 33.77451 -116.32289 19953 ft 283 kts 316°
2026-05-05 20:16 33.78885 -116.33888 19962 ft 282 kts 317°
2026-05-05 20:16 33.80316 -116.35486 19961 ft 282 kts 316°
2026-05-05 20:16 33.81757 -116.37096 19971 ft 282 kts 317°
2026-05-05 20:17 33.83200 -116.38707 19980 ft 282 kts 317°
2026-05-05 20:17 33.84634 -116.40309 19982 ft 282 kts 317°
2026-05-05 20:17 33.86058 -116.41901 19990 ft 282 kts 317°
2026-05-05 20:17 33.87353 -116.43683 19991 ft 282 kts 300°
2026-05-05 20:18 33.88324 -116.45724 19992 ft 282 kts 300°
2026-05-05 20:18 33.89297 -116.47766 19994 ft 283 kts 300°
2026-05-05 20:18 33.90274 -116.49817 19993 ft 283 kts 300°
2026-05-05 20:18 33.91253 -116.51874 20000 ft 283 kts 300°
2026-05-05 20:19 33.92234 -116.53938 20012 ft 284 kts 300°
2026-05-05 20:19 33.93201 -116.55975 20011 ft 283 kts 301°
2026-05-05 20:19 33.94187 -116.58046 20021 ft 284 kts 300°
2026-05-05 20:19 33.95170 -116.60117 20020 ft 284 kts 300°
2026-05-05 20:20 33.96141 -116.62163 20020 ft 285 kts 300°
2026-05-05 20:20 33.97121 -116.64230 20004 ft 284 kts 301°
2026-05-05 20:20 33.98106 -116.66309 20010 ft 284 kts 300°
2026-05-05 20:20 33.99089 -116.68385 20013 ft 284 kts 300°
2026-05-05 20:21 34.00071 -116.70458 20016 ft 285 kts 300°
2026-05-05 20:21 34.01048 -116.72527 19999 ft 286 kts 300°
2026-05-05 20:21 34.02027 -116.74599 19988 ft 286 kts 300°
2026-05-05 20:21 34.03016 -116.76690 19988 ft 286 kts 300°
2026-05-05 20:22 34.03998 -116.78772 19990 ft 286 kts 300°
2026-05-05 20:22 34.04973 -116.80838 19976 ft 286 kts 300°
2026-05-05 20:22 34.05960 -116.82933 19983 ft 285 kts 300°
2026-05-05 20:22 34.06934 -116.84997 19987 ft 285 kts 300°
2026-05-05 20:23 34.07912 -116.87074 19978 ft 285 kts 300°
2026-05-05 20:23 34.08893 -116.89159 19988 ft 284 kts 300°
2026-05-05 20:23 34.09867 -116.91228 19987 ft 284 kts 300°
2026-05-05 20:23 34.10838 -116.93295 20014 ft 284 kts 300°
2026-05-05 20:24 34.11808 -116.95360 20007 ft 284 kts 301°
2026-05-05 20:24 34.12781 -116.97432 20001 ft 285 kts 300°
2026-05-05 20:24 34.13768 -116.99537 20001 ft 285 kts 301°
2026-05-05 20:24 34.14733 -117.01594 20017 ft 285 kts 301°
2026-05-05 20:25 34.15710 -117.03678 20017 ft 285 kts 301°
2026-05-05 20:25 34.16693 -117.05776 20002 ft 285 kts 301°
2026-05-05 20:25 34.17662 -117.07848 20015 ft 284 kts 301°
2026-05-05 20:25 34.18632 -117.09920 20035 ft 285 kts 301°
2026-05-05 20:26 34.19610 -117.12012 20028 ft 285 kts 301°
2026-05-05 20:26 34.20574 -117.14076 20017 ft 282 kts 301°
2026-05-05 20:26 34.21530 -117.16121 20012 ft 280 kts 301°
2026-05-05 20:26 34.22483 -117.18161 20025 ft 278 kts 301°
2026-05-05 20:27 34.23428 -117.20183 20010 ft 277 kts 301°
2026-05-05 20:27 34.24381 -117.22218 20017 ft 276 kts 301°
2026-05-05 20:27 34.25320 -117.24232 20012 ft 275 kts 301°
2026-05-05 20:27 34.26252 -117.26234 20016 ft 275 kts 301°
2026-05-05 20:28 34.27188 -117.28249 20021 ft 274 kts 301°
2026-05-05 20:28 34.28129 -117.30276 20020 ft 274 kts 301°
2026-05-05 20:28 34.29056 -117.32270 20026 ft 275 kts 301°
2026-05-05 20:28 34.29986 -117.34275 20012 ft 275 kts 301°
2026-05-05 20:29 34.30925 -117.36295 20007 ft 275 kts 301°
2026-05-05 20:29 34.31865 -117.38316 20005 ft 275 kts 301°
2026-05-05 20:29 34.32800 -117.40335 20017 ft 275 kts 301°
2026-05-05 20:29 34.33738 -117.42358 20007 ft 276 kts 301°
2026-05-05 20:30 34.34680 -117.44388 19995 ft 276 kts 301°
2026-05-05 20:30 34.35611 -117.46396 19988 ft 276 kts 301°
2026-05-05 20:30 34.36540 -117.48405 19976 ft 264 kts 301°
2026-05-05 20:30 34.37392 -117.50249 19938 ft 243 kts 302°
2026-05-05 20:31 34.38199 -117.51989 19695 ft 234 kts 302°
2026-05-05 20:31 34.39038 -117.53795 18503 ft 262 kts 301°
2026-05-05 20:31 34.39939 -117.55745 17671 ft 269 kts 301°
2026-05-05 20:31 34.40840 -117.57697 17088 ft 265 kts 301°
2026-05-05 20:32 34.41723 -117.59611 16578 ft 260 kts 301°
2026-05-05 20:32 34.42580 -117.61470 16498 ft 255 kts 300°
2026-05-05 20:32 34.43462 -117.63383 16484 ft 262 kts 300°
2026-05-05 20:32 34.44353 -117.65321 16479 ft 266 kts 300°
2026-05-05 20:33 34.45265 -117.67303 16480 ft 269 kts 300°
2026-05-05 20:33 34.46178 -117.69282 16486 ft 271 kts 300°
2026-05-05 20:33 34.47092 -117.71270 16485 ft 272 kts 300°
2026-05-05 20:33 34.48006 -117.73261 16463 ft 258 kts 300°
2026-05-05 20:34 34.48844 -117.75085 16184 ft 246 kts 300°
2026-05-05 20:34 34.49676 -117.76893 15670 ft 246 kts 300°
2026-05-05 20:34 34.50503 -117.78693 15160 ft 245 kts 300°
2026-05-05 20:34 34.51320 -117.80475 14660 ft 243 kts 300°
2026-05-05 20:35 34.52137 -117.82254 14180 ft 242 kts 300°
2026-05-05 20:35 34.52949 -117.84027 13714 ft 240 kts 300°
2026-05-05 20:35 34.53749 -117.85775 13260 ft 238 kts 300°
2026-05-05 20:35 34.54550 -117.87527 12775 ft 237 kts 300°
2026-05-05 20:36 34.55339 -117.89253 12499 ft 228 kts 300°
2026-05-05 20:36 34.56122 -117.90960 12502 ft 241 kts 300°
2026-05-05 20:36 34.56965 -117.92806 12522 ft 259 kts 300°
2026-05-05 20:36 34.57859 -117.94765 12523 ft 271 kts 299°
2026-05-05 20:37 34.58787 -117.96803 12525 ft 280 kts 300°
2026-05-05 20:37 34.59747 -117.98904 12523 ft 285 kts 299°
2026-05-05 20:37 34.60708 -118.01018 12516 ft 289 kts 300°
2026-05-05 20:37 34.61679 -118.03145 12519 ft 291 kts 300°
2026-05-05 20:38 34.62667 -118.05315 12517 ft 293 kts 300°
2026-05-05 20:38 34.63862 -118.07292 12516 ft 291 kts 314°
2026-05-05 20:38 34.65234 -118.09080 12519 ft 292 kts 313°
2026-05-05 20:38 34.66632 -118.10896 12513 ft 293 kts 314°
2026-05-05 20:39 34.68022 -118.12701 12512 ft 291 kts 314°
2026-05-05 20:39 34.69367 -118.14449 12505 ft 279 kts 314°
2026-05-05 20:39 34.70671 -118.16144 12506 ft 269 kts 314°
2026-05-05 20:39 34.71926 -118.17778 12513 ft 263 kts 314°
2026-05-05 20:40 34.73172 -118.19399 12511 ft 259 kts 314°
2026-05-05 20:40 34.74396 -118.20995 12512 ft 256 kts 314°
2026-05-05 20:40 34.75600 -118.22563 12513 ft 254 kts 314°
2026-05-05 20:40 34.76795 -118.24123 12516 ft 253 kts 314°
2026-05-05 20:41 34.77992 -118.25684 12515 ft 252 kts 314°
2026-05-05 20:41 34.79198 -118.27258 12511 ft 252 kts 314°
2026-05-05 20:41 34.80387 -118.28812 12515 ft 251 kts 314°
2026-05-05 20:41 34.81580 -118.30367 12529 ft 250 kts 314°
2026-05-05 20:42 34.82763 -118.31915 12538 ft 250 kts 314°
2026-05-05 20:42 34.83950 -118.33466 12535 ft 250 kts 314°
2026-05-05 20:42 34.85122 -118.34999 12534 ft 249 kts 314°
2026-05-05 20:42 34.86309 -118.36552 12537 ft 249 kts 314°
2026-05-05 20:43 34.87483 -118.38088 12546 ft 248 kts 314°
2026-05-05 20:43 34.88662 -118.39633 12558 ft 248 kts 314°
2026-05-05 20:43 34.89832 -118.41166 12572 ft 251 kts 314°
2026-05-05 20:43 34.91021 -118.42727 12553 ft 252 kts 314°
2026-05-05 20:44 34.92214 -118.44289 12514 ft 253 kts 314°
2026-05-05 20:44 34.93407 -118.45854 12496 ft 251 kts 314°
2026-05-05 20:44 34.94595 -118.47413 12512 ft 249 kts 314°
2026-05-05 20:44 34.95769 -118.48955 12522 ft 249 kts 314°
2026-05-05 20:45 34.98128 -118.52047 12509 ft 249 kts 315°
2026-05-05 20:45 34.99307 -118.53593 12495 ft 249 kts 314°
2026-05-05 20:45 35.00587 -118.55028 12475 ft 246 kts 335°
2026-05-05 20:46 35.02215 -118.55578 12511 ft 244 kts 353°
2026-05-05 20:46 35.03898 -118.55654 12513 ft 244 kts
2026-05-05 20:46 35.05593 -118.55505 12507 ft 244 kts
2026-05-05 20:46 35.07279 -118.55254 12513 ft 244 kts
2026-05-05 20:47 35.08968 -118.54953 12524 ft 244 kts
2026-05-05 20:47 35.10643 -118.54633 12521 ft 244 kts
2026-05-05 20:47 35.12333 -118.54299 12522 ft 244 kts
2026-05-05 20:47 35.14016 -118.53961 12531 ft 245 kts
2026-05-05 20:48 35.15701 -118.53622 12533 ft 245 kts
2026-05-05 20:48 35.17372 -118.53283 12526 ft 245 kts
2026-05-05 20:48 35.19056 -118.52942 12517 ft 246 kts
2026-05-05 20:48 35.20755 -118.52599 12510 ft 246 kts
2026-05-05 20:49 35.22448 -118.52254 12509 ft 246 kts
2026-05-05 20:49 35.24146 -118.51909 12511 ft 245 kts
2026-05-05 20:49 35.25829 -118.51569 12513 ft 245 kts
2026-05-05 20:49 35.27528 -118.51226 12516 ft 253 kts
2026-05-05 20:50 35.29330 -118.50861 12518 ft 273 kts
2026-05-05 20:50 35.31256 -118.50470 12507 ft 287 kts
2026-05-05 20:50 35.33264 -118.50061 12500 ft 296 kts
2026-05-05 20:50 35.35326 -118.49641 12494 ft 301 kts
2026-05-05 20:51 35.37387 -118.49221 12488 ft 305 kts
2026-05-05 20:51 35.39485 -118.48792 12468 ft 307 kts
2026-05-05 20:51 35.41623 -118.48357 12420 ft 309 kts
2026-05-05 20:51 35.43755 -118.47922 12404 ft 309 kts
2026-05-05 20:52 35.45849 -118.47495 12405 ft 306 kts
2026-05-05 20:52 35.47834 -118.47089 12360 ft 271 kts 10°
2026-05-05 20:52 35.49642 -118.46719 11881 ft 259 kts 10°
2026-05-05 20:52 35.51389 -118.46365 11169 ft 257 kts
2026-05-05 20:53 35.53183 -118.46450 10520 ft 253 kts 358°
2026-05-05 20:53 35.54859 -118.46596 10228 ft 238 kts 357°
2026-05-05 20:53 35.56482 -118.46744 9754 ft 233 kts 358°
2026-05-05 20:53 35.58079 -118.46890 9435 ft 223 kts 357°
2026-05-05 20:54 35.59574 -118.47021 9142 ft 215 kts 358°
2026-05-05 20:54 35.61072 -118.47149 8632 ft 216 kts 357°
2026-05-05 20:54 35.62612 -118.47263 7739 ft 232 kts 357°
2026-05-05 20:54 35.64202 -118.47046 7016 ft 235 kts 18°
2026-05-05 20:55 35.65798 -118.46408 5935 ft 250 kts 17°
2026-05-05 20:55 35.67437 -118.45763 5054 ft 251 kts 18°
2026-05-05 20:55 35.68971 -118.44811 3957 ft 259 kts 42°
2026-05-05 20:55 35.70235 -118.43272 3239 ft 251 kts 46°
2026-05-05 20:56 35.71127 -118.42178 3765 ft 141 kts 50°
2026-05-05 20:56 35.71059 -118.41193 3426 ft 148 kts 162°
2026-05-05 20:56 35.70594 -118.41836 3460 ft 133 kts 327°
2026-05-05 20:56 35.71581 -118.42048 3036 ft 141 kts
2026-05-05 20:57 35.72500 -118.42010 2640 ft 119 kts
2026-05-05 20:57 35.72964 -118.41961 2648 ft 15 kts
2026-05-05 20:57 35.73066 -118.41898 2652 ft 0 kts 179°